Location: Vale
(35.4830°N, 81.3830°W)
Time: 06:52:45
(UTC-04:00)

SR - All Passes

Search period start: 29 June 2016 00:00
Search period end: 09 July 2016 00:00
Orbit: 583 x 875 km, 66.7° (Epoch: 28 June)

Date Brightness Start Highest point End Pass type
(mag) Time Alt. Az. Time Alt. Az. Time Alt. Az.
29 Jun - 07:06:50 10° SSE 07:11:12 26° ESE 07:15:19 10° NE daylight
29 Jun - 08:48:24 10° WSW 08:53:08 34° WNW 08:57:33 10° N daylight
29 Jun - 17:31:55 10° NNW 17:36:11 84° ENE 17:40:28 10° SSE daylight
30 Jun - 06:20:19 10° SE 06:22:10 12° ESE 06:23:59 10° E daylight
30 Jun - 07:58:29 10° SSW 08:03:46 71° WNW 08:08:39 10° NNE daylight
30 Jun - 16:42:56 10° N 16:46:51 34° ENE 16:50:46 10° SE daylight
30 Jun - 18:25:50 10° WNW 18:28:33 17° WSW 18:31:19 10° SSW daylight
01 Jul - 07:09:21 10° S 07:14:32 54° ESE 07:19:18 10° NE daylight
01 Jul - 08:53:22 10° W 08:56:48 18° NW 09:00:05 10° N daylight
01 Jul - 15:54:36 10° NNE 15:57:19 16° NE 16:00:01 10° E daylight
01 Jul - 17:35:32 10° NW 17:39:30 40° WSW 17:43:32 10° S daylight
02 Jul - 06:21:07 10° SSE 06:25:22 25° ESE 06:29:24 10° NE daylight
02 Jul - 08:02:31 10° SW 08:07:17 35° WNW 08:11:43 10° N daylight
02 Jul - 16:46:03 10° NNW 16:50:19 80° ENE 16:54:37 10° SSE daylight
03 Jul - 05:34:56 10° ESE 05:36:21 11° ESE 05:37:44 10° E visible
03 Jul - 07:12:39 10° SSW 07:17:56 74° WNW 07:22:47 10° NNE daylight
03 Jul - 15:57:07 10° N 16:00:59 33° ENE 16:04:51 10° ESE daylight
03 Jul - 17:39:51 10° WNW 17:42:43 18° WSW 17:45:37 10° SSW daylight
04 Jul - 06:23:34 10° S 06:28:41 51° ESE 06:33:25 10° NE daylight
04 Jul - 08:07:26 10° W 08:10:56 18° NW 08:14:17 10° N daylight
04 Jul - 15:08:50 10° NNE 15:11:26 16° NE 15:14:01 10° E daylight
04 Jul - 16:49:38 10° NW 16:53:39 42° WSW 16:57:44 10° S daylight
05 Jul - 05:35:24 10° SSE 05:39:33 24° ESE 05:43:27 10° ENE visible
05 Jul - 07:16:40 10° SW 07:21:26 36° WNW 07:25:52 10° N daylight
05 Jul - 16:00:12 10° NNW 16:04:27 76° ENE 16:08:46 10° SSE daylight
06 Jul - 04:49:47 10° ESE 04:50:32 10° ESE 04:51:16 10° E visible
06 Jul - 06:26:50 10° SSW 06:32:06 78° WNW 06:36:55 10° NNE daylight
06 Jul - 15:11:17 10° N 15:15:06 31° ENE 15:18:56 10° ESE daylight
06 Jul - 16:53:53 10° WNW 16:56:52 19° WSW 16:59:54 10° SSW daylight
07 Jul - 05:37:48 10° S 05:42:51 48° ESE 05:47:31 10° NE visible
07 Jul - 07:21:29 10° W 07:25:04 19° NW 07:28:28 10° N daylight
07 Jul - 14:23:05 10° NNE 14:25:33 15° NE 14:28:00 10° E daylight
07 Jul - 16:03:44 10° NW 16:07:47 45° WSW 16:11:56 10° S daylight
08 Jul - 04:49:43 10° SSE 04:53:43 22° ESE 04:57:30 10° ENE visible
08 Jul - 06:30:48 10° SW 06:35:35 38° WNW 06:40:02 10° N daylight
08 Jul - 15:14:20 10° NNW 15:18:35 72° ENE 15:22:54 10° SSE daylight
